date,time,SUV Intensity [MED/Hr],UV Index,Daily total [MED],Since Last [MED]
11/07/2022,00:10:15,0.000,0.0,0.0,0.0
11/07/2022,00:11:15,0.000,0.0,0.0,0.0
11/07/2022,00:12:23,0.000,0.0,0.0,0.0
11/07/2022,00:13:15,0.000,0.0,0.0,0.0
11/07/2022,00:14:15,-0.000,0.0,0.0,0.0
11/07/2022,00:15:15,-0.001,0.0,0.0,0.0
11/07/2022,00:16:15,0.000,0.0,0.0,0.0
11/07/2022,00:17:15,-0.001,0.0,0.0,0.0
11/07/2022,00:18:15,0.000,0.0,0.0,0.0
11/07/2022,00:19:15,-0.000,0.0,0.0,0.0
11/07/2022,00:20:15,0.001,0.0,0.0,0.0
11/07/2022,00:21:16,0.000,0.0,0.0,0.0
11/07/2022,00:22:15,0.000,0.0,0.0,0.0
11/07/2022,00:23:15,0.000,0.0,0.0,0.0
11/07/2022,00:24:15,0.000,0.0,0.0,0.0
11/07/2022,00:25:15,0.000,0.0,0.0,0.0
11/07/2022,00:26:15,0.000,0.0,0.0,0.0
11/07/2022,00:27:15,0.001,0.0,0.0,0.0
11/07/2022,00:28:15,-0.001,0.0,0.0,0.0
11/07/2022,00:29:15,0.000,0.0,0.0,0.0
11/07/2022,00:30:15,0.000,0.0,0.0,0.0
11/07/2022,00:31:15,0.000,0.0,0.0,0.0
11/07/2022,00:32:15,0.000,0.0,0.0,0.0
11/07/2022,00:33:15,-0.000,0.0,0.0,0.0
11/07/2022,00:34:15,0.001,0.0,0.0,0.0
11/07/2022,00:35:15,0.000,0.0,0.0,0.0
11/07/2022,00:36:15,-0.001,0.0,0.0,0.0
11/07/2022,00:37:15,0.000,0.0,0.0,0.0
11/07/2022,00:38:23,0.000,0.0,0.0,0.0
11/07/2022,00:39:15,-0.001,0.0,0.0,0.0
11/07/2022,00:40:17,0.000,0.0,0.0,0.0
11/07/2022,00:41:24,0.000,0.0,0.0,0.0
11/07/2022,00:42:15,0.000,0.0,0.0,0.0
11/07/2022,00:43:15,0.000,0.0,0.0,0.0
11/07/2022,00:44:15,0.000,0.0,0.0,0.0
11/07/2022,00:45:15,0.000,0.0,0.0,0.0
11/07/2022,00:46:15,0.000,0.0,0.0,0.0
11/07/2022,00:47:15,0.001,0.0,0.0,0.0
11/07/2022,00:48:15,0.000,0.0,0.0,0.0
11/07/2022,00:49:15,0.000,0.0,0.0,0.0
11/07/2022,00:50:15,0.001,0.0,0.0,0.0
11/07/2022,00:51:15,0.000,0.0,0.0,0.0
11/07/2022,00:52:15,0.000,0.0,0.0,0.0
11/07/2022,00:53:15,-0.001,0.0,0.0,0.0
11/07/2022,00:54:15,0.001,0.0,0.0,0.0
11/07/2022,00:55:15,0.000,0.0,0.0,0.0
11/07/2022,00:56:15,0.001,0.0,0.0,0.0
11/07/2022,00:57:15,0.001,0.0,0.0,0.0
11/07/2022,00:58:15,0.000,0.0,0.0,0.0
11/07/2022,00:59:15,-0.000,0.0,0.0,0.0
11/07/2022,01:00:15,0.000,0.0,0.0,0.0
11/07/2022,01:01:15,0.001,0.0,0.0,0.0
11/07/2022,01:02:15,0.000,0.0,0.0,0.0
11/07/2022,01:03:15,0.000,0.0,0.0,0.0
11/07/2022,01:04:24,0.000,0.0,0.0,0.0
11/07/2022,01:05:15,-0.000,0.0,0.0,0.0
11/07/2022,01:06:16,0.000,0.0,0.0,0.0
11/07/2022,01:07:23,-0.000,0.0,0.0,0.0
11/07/2022,01:09:16,0.000,0.0,0.0,0.0
11/07/2022,01:10:15,0.000,0.0,0.0,0.0
11/07/2022,01:11:15,0.001,0.0,0.0,0.0
11/07/2022,01:12:16,0.000,0.0,0.0,0.0
11/07/2022,01:13:15,0.000,0.0,0.0,0.0
11/07/2022,01:14:15,0.000,0.0,0.0,0.0
11/07/2022,01:15:15,0.000,0.0,0.0,0.0
11/07/2022,01:16:15,0.001,0.0,0.0,0.0
11/07/2022,01:17:15,-0.001,0.0,0.0,0.0
11/07/2022,01:18:15,0.000,0.0,0.0,0.0
11/07/2022,01:19:15,-0.001,0.0,0.0,0.0
11/07/2022,01:20:15,0.001,0.0,0.0,0.0
11/07/2022,01:21:02,0.001,0.0,0.0,0.0
11/07/2022,01:22:16,0.001,0.0,0.0,0.0
11/07/2022,01:23:15,0.001,0.0,0.0,0.0
11/07/2022,01:24:15,0.001,0.0,0.0,0.0
11/07/2022,01:25:16,0.000,0.0,0.0,0.0
11/07/2022,01:26:15,-0.000,0.0,0.0,0.0
11/07/2022,01:27:15,0.001,0.0,0.0,0.0
11/07/2022,01:28:15,0.001,0.0,0.0,0.0
11/07/2022,01:29:15,0.001,0.0,0.0,0.0
11/07/2022,01:30:24,0.001,0.0,0.0,0.0
11/07/2022,01:31:15,0.000,0.0,0.0,0.0
11/07/2022,01:32:15,0.000,0.0,0.0,0.0
11/07/2022,01:33:24,0.001,0.0,0.0,0.0
11/07/2022,01:34:15,0.001,0.0,0.0,0.0
11/07/2022,01:35:15,0.001,0.0,0.0,0.0
11/07/2022,01:36:16,0.001,0.0,0.0,0.0
11/07/2022,01:37:15,0.001,0.0,0.0,0.0
11/07/2022,01:38:15,0.001,0.0,0.0,0.0
11/07/2022,01:39:15,0.001,0.0,0.0,0.0
11/07/2022,01:40:15,0.000,0.0,0.0,0.0
11/07/2022,01:41:15,0.001,0.0,0.0,0.0
11/07/2022,01:42:16,0.001,0.0,0.0,0.0
11/07/2022,01:43:15,0.001,0.0,0.0,0.0
11/07/2022,01:44:16,0.001,0.0,0.0,0.0
11/07/2022,01:45:15,0.001,0.0,0.0,0.0
11/07/2022,01:46:15,0.001,0.0,0.0,0.0
11/07/2022,01:47:15,0.001,0.0,0.0,0.0
11/07/2022,01:48:24,0.001,0.0,0.0,0.0
11/07/2022,01:49:15,0.001,0.0,0.0,0.0
11/07/2022,01:50:15,0.001,0.0,0.0,0.0
11/07/2022,01:51:15,0.001,0.0,0.0,0.0
11/07/2022,01:52:16,0.001,0.0,0.0,0.0
11/07/2022,01:53:15,0.001,0.0,0.0,0.0
11/07/2022,01:54:15,0.001,0.0,0.0,0.0
11/07/2022,01:55:15,0.001,0.0,0.0,0.0
11/07/2022,01:56:23,0.001,0.0,0.0,0.0
11/07/2022,01:57:15,0.001,0.0,0.0,0.0
11/07/2022,01:58:15,0.001,0.0,0.0,0.0
11/07/2022,01:59:15,0.001,0.0,0.0,0.0
11/07/2022,02:00:15,0.001,0.0,0.0,0.0
11/07/2022,02:01:15,0.001,0.0,0.0,0.0
11/07/2022,02:02:15,0.001,0.0,0.0,0.0
11/07/2022,02:03:15,0.001,0.0,0.0,0.0
11/07/2022,02:04:15,0.002,0.0,0.0,0.0
11/07/2022,02:05:15,0.001,0.0,0.0,0.0
11/07/2022,02:06:15,0.001,0.0,0.0,0.0
11/07/2022,02:07:15,0.001,0.0,0.0,0.0
11/07/2022,02:08:16,0.002,0.0,0.0,0.0
11/07/2022,02:09:15,0.002,0.0,0.0,0.0
11/07/2022,02:10:15,0.001,0.0,0.0,0.0
11/07/2022,02:11:24,0.002,0.0,0.0,0.0
11/07/2022,02:13:16,0.001,0.0,0.0,0.0
11/07/2022,02:14:15,0.001,0.0,0.0,0.0
11/07/2022,02:15:15,0.001,0.0,0.0,0.0
11/07/2022,02:16:15,0.001,0.0,0.0,0.0
11/07/2022,02:17:15,0.001,0.0,0.0,0.0
11/07/2022,02:18:16,0.001,0.0,0.0,0.0
11/07/2022,02:19:23,0.002,0.0,0.0,0.0
11/07/2022,02:20:15,0.001,0.0,0.0,0.0
11/07/2022,02:21:15,0.002,0.0,0.0,0.0
11/07/2022,02:22:16,0.001,0.0,0.0,0.0
11/07/2022,02:23:15,0.001,0.0,0.0,0.0
11/07/2022,02:24:15,0.002,0.0,0.0,0.0
11/07/2022,02:25:16,0.001,0.0,0.0,0.0
11/07/2022,02:26:15,0.001,0.0,0.0,0.0
11/07/2022,02:27:16,0.001,0.0,0.0,0.0
11/07/2022,02:28:15,0.001,0.0,0.0,0.0
11/07/2022,02:29:16,0.001,0.0,0.0,0.0
11/07/2022,02:30:15,0.001,0.0,0.0,0.0
11/07/2022,02:31:15,0.001,0.0,0.0,0.0
11/07/2022,02:32:15,0.001,0.0,0.0,0.0
11/07/2022,02:33:15,0.001,0.0,0.0,0.0
11/07/2022,02:34:23,0.001,0.0,0.0,0.0
11/07/2022,02:35:15,0.001,0.0,0.0,0.0
11/07/2022,02:36:15,0.001,0.0,0.0,0.0
11/07/2022,02:37:37,0.001,0.0,0.0,0.0
11/07/2022,02:39:16,0.001,0.0,0.0,0.0
11/07/2022,02:40:16,0.001,0.0,0.0,0.0
11/07/2022,02:41:15,0.001,0.0,0.0,0.0
11/07/2022,02:42:15,0.001,0.0,0.0,0.0
11/07/2022,02:43:15,0.001,0.0,0.0,0.0
11/07/2022,02:44:15,0.001,0.0,0.0,0.0
11/07/2022,02:45:16,0.001,0.0,0.0,0.0
11/07/2022,02:46:15,0.001,0.0,0.0,0.0
11/07/2022,02:47:15,0.001,0.0,0.0,0.0
11/07/2022,02:48:16,0.001,0.0,0.0,0.0
11/07/2022,02:49:15,0.001,0.0,0.0,0.0
11/07/2022,02:50:16,0.001,0.0,0.0,0.0
11/07/2022,02:51:15,0.001,0.0,0.0,0.0
11/07/2022,02:52:15,0.001,0.0,0.0,0.0
11/07/2022,02:53:16,0.001,0.0,0.0,0.0
11/07/2022,02:54:15,0.001,0.0,0.0,0.0
11/07/2022,02:55:23,0.002,0.0,0.0,0.0
11/07/2022,02:56:15,0.001,0.0,0.0,0.0
11/07/2022,02:57:15,0.001,0.0,0.0,0.0
11/07/2022,02:58:24,0.001,0.0,0.0,0.0
11/07/2022,03:00:16,0.001,0.0,0.0,0.0
11/07/2022,03:01:15,0.001,0.0,0.0,0.0
11/07/2022,03:02:15,0.001,0.0,0.0,0.0
11/07/2022,03:03:16,0.002,0.0,0.0,0.0
11/07/2022,03:04:15,0.001,0.0,0.0,0.0
11/07/2022,03:05:15,0.002,0.0,0.0,0.0
11/07/2022,03:06:15,0.001,0.0,0.0,0.0
11/07/2022,03:07:16,0.001,0.0,0.0,0.0
11/07/2022,03:08:15,0.001,0.0,0.0,0.0
11/07/2022,03:09:16,0.001,0.0,0.0,0.0
11/07/2022,03:10:15,0.001,0.0,0.0,0.0
11/07/2022,03:11:16,0.001,0.0,0.0,0.0
11/07/2022,03:12:15,0.001,0.0,0.0,0.0
11/07/2022,03:13:15,0.001,0.0,0.0,0.0
11/07/2022,03:14:16,0.001,0.0,0.0,0.0
11/07/2022,03:15:15,0.001,0.0,0.0,0.0
11/07/2022,03:16:24,0.001,0.0,0.0,0.0
11/07/2022,03:17:15,0.001,0.0,0.0,0.0
11/07/2022,03:18:15,0.001,0.0,0.0,0.0
11/07/2022,03:19:15,0.001,0.0,0.0,0.0
11/07/2022,03:20:15,0.001,0.0,0.0,0.0
11/07/2022,03:21:15,0.001,0.0,0.0,0.0
11/07/2022,03:22:15,0.002,0.0,0.0,0.0
11/07/2022,03:23:15,0.002,0.0,0.0,0.0
11/07/2022,03:24:24,0.001,0.0,0.0,0.0
11/07/2022,03:25:15,0.001,0.0,0.0,0.0
11/07/2022,03:26:15,0.001,0.0,0.0,0.0
11/07/2022,03:27:23,0.001,0.0,0.0,0.0
11/07/2022,03:28:15,0.001,0.0,0.0,0.0
11/07/2022,03:29:15,0.001,0.0,0.0,0.0
11/07/2022,03:30:16,0.001,0.0,0.0,0.0
11/07/2022,03:31:15,0.001,0.0,0.0,0.0
11/07/2022,03:32:16,0.001,0.0,0.0,0.0
11/07/2022,03:33:15,0.001,0.0,0.0,0.0
11/07/2022,03:34:15,0.001,0.0,0.0,0.0
11/07/2022,03:35:16,0.001,0.0,0.0,0.0
11/07/2022,03:36:15,0.002,0.0,0.0,0.0
11/07/2022,03:37:15,0.001,0.0,0.0,0.0
11/07/2022,03:38:15,0.001,0.0,0.0,0.0
11/07/2022,03:39:15,0.002,0.0,0.0,0.0
11/07/2022,03:40:15,0.001,0.0,0.0,0.0
11/07/2022,03:41:16,0.002,0.0,0.0,0.0
11/07/2022,03:42:23,0.001,0.0,0.0,0.0
11/07/2022,03:43:15,0.002,0.0,0.0,0.0
11/07/2022,03:44:16,0.001,0.0,0.0,0.0
11/07/2022,03:45:24,0.002,0.0,0.0,0.0
11/07/2022,03:47:18,0.001,0.0,0.0,0.0
11/07/2022,03:48:23,0.001,0.0,0.0,0.0
11/07/2022,03:49:15,0.002,0.0,0.0,0.0
11/07/2022,03:50:23,0.002,0.0,0.0,0.0
11/07/2022,03:51:24,0.003,0.0,0.0,0.0
11/07/2022,03:52:16,0.001,0.0,0.0,0.0
11/07/2022,03:53:15,0.002,0.0,0.0,0.0
11/07/2022,03:54:24,0.002,0.0,0.0,0.0
11/07/2022,03:55:16,0.002,0.0,0.0,0.0
11/07/2022,03:56:15,0.002,0.0,0.0,0.0
11/07/2022,03:57:15,0.002,0.0,0.0,0.0
11/07/2022,03:58:16,0.002,0.0,0.0,0.0
11/07/2022,03:59:15,0.002,0.0,0.0,0.0
11/07/2022,04:00:15,0.003,0.0,0.0,0.0
11/07/2022,04:01:15,0.003,0.0,0.0,0.0
11/07/2022,04:02:15,0.003,0.0,0.0,0.0
11/07/2022,04:03:16,0.003,0.0,0.0,0.0
11/07/2022,04:04:15,0.003,0.0,0.0,0.0
11/07/2022,04:05:15,0.003,0.0,0.0,0.0
11/07/2022,04:06:25,0.003,0.0,0.0,0.0
11/07/2022,04:08:16,0.004,0.0,0.0,0.0
11/07/2022,04:09:16,0.004,0.0,0.0,0.0
11/07/2022,04:10:15,0.004,0.0,0.0,0.0
11/07/2022,04:11:16,0.004,0.0,0.0,0.0
11/07/2022,04:12:15,0.003,0.0,0.0,0.0
11/07/2022,04:13:15,0.003,0.0,0.0,0.0
11/07/2022,04:14:16,0.005,0.0,0.0,0.0
11/07/2022,04:15:16,0.005,0.0,0.0,0.0
11/07/2022,04:16:15,0.005,0.0,0.0,0.0
11/07/2022,04:17:15,0.004,0.0,0.0,0.0
11/07/2022,04:18:16,0.005,0.0,0.0,0.0
11/07/2022,04:19:16,0.006,0.0,0.0,0.0
11/07/2022,04:20:15,0.006,0.0,0.0,0.0
11/07/2022,04:48:54,0.015,0.0,0.004,0.004
11/07/2022,04:50:16,0.016,0.0,0.005,0.001
11/07/2022,04:51:15,0.017,0.0,0.005,0.0
11/07/2022,04:52:15,0.016,0.0,0.005,0.0
11/07/2022,04:53:15,0.017,0.0,0.005,0.0
11/07/2022,04:54:15,0.018,0.0,0.006,0.001
11/07/2022,04:55:16,0.018,0.0,0.006,0.0
11/07/2022,04:56:16,0.019,0.0,0.006,0.0
11/07/2022,04:57:16,0.020,0.0,0.007,0.001
11/07/2022,04:58:24,0.020,0.0,0.007,0.0
11/07/2022,04:59:15,0.020,0.0,0.007,0.0
11/07/2022,05:00:15,0.021,0.0,0.008,0.001
11/07/2022,05:01:15,0.022,0.0,0.008,0.0
11/07/2022,05:02:16,0.022,0.0,0.008,0.0
11/07/2022,05:03:16,0.023,0.0,0.009,0.001
11/07/2022,05:04:15,0.025,0.0,0.009,0.0
11/07/2022,05:05:16,0.024,0.0,0.01,0.001
11/07/2022,05:06:15,0.026,0.0,0.01,0.0
11/07/2022,05:07:16,0.026,0.0,0.01,0.0
11/07/2022,05:08:15,0.027,0.0,0.011,0.001
11/07/2022,05:09:16,0.027,0.0,0.011,0.0
11/07/2022,05:10:15,0.028,0.0,0.012,0.001
11/07/2022,05:11:15,0.029,0.0,0.012,0.0
11/07/2022,05:12:16,0.030,0.0,0.013,0.001
11/07/2022,05:13:24,0.030,0.0,0.013,0.0
11/07/2022,05:14:14,0.031,0.0,0.014,0.001
11/07/2022,05:15:15,0.032,0.0,0.014,0.0
11/07/2022,05:16:16,0.033,0.0,0.015,0.001
11/07/2022,05:17:18,0.034,0.0,0.015,0.0
11/07/2022,05:18:15,0.035,0.0,0.016,0.001
11/07/2022,05:19:16,0.036,0.0,0.017,0.001
11/07/2022,05:20:16,0.038,0.0,0.017,0.0
11/07/2022,05:21:15,0.038,0.0,0.018,0.001
11/07/2022,05:22:16,0.039,0.0,0.018,0.0
11/07/2022,05:23:16,0.040,0.0,0.019,0.001
11/07/2022,05:24:15,0.041,0.0,0.02,0.001
11/07/2022,05:25:15,0.042,0.0,0.02,0.0
11/07/2022,05:26:15,0.043,0.0,0.021,0.001
11/07/2022,05:27:15,0.044,0.0,0.022,0.001
11/07/2022,05:28:16,0.046,0.0,0.023,0.001
11/07/2022,05:29:15,0.047,0.0,0.023,0.0
11/07/2022,05:30:16,0.048,0.0,0.024,0.001
11/07/2022,05:31:23,0.049,0.0,0.025,0.001
11/07/2022,05:32:16,0.050,0.0,0.026,0.001
11/07/2022,05:33:24,0.052,0.0,0.027,0.001
11/07/2022,05:34:24,0.053,0.0,0.028,0.001
11/07/2022,05:36:16,0.055,0.0,0.029,0.001
11/07/2022,05:37:16,0.057,0.0,0.03,0.001
11/07/2022,05:38:16,0.057,0.0,0.031,0.001
11/07/2022,05:39:16,0.059,0.0,0.032,0.001
11/07/2022,05:40:15,0.061,0.0,0.033,0.001
11/07/2022,05:41:15,0.061,0.0,0.034,0.001
11/07/2022,05:42:15,0.064,0.0,0.035,0.001
11/07/2022,05:43:15,0.065,0.0,0.036,0.001
11/07/2022,05:44:23,0.067,0.0,0.038,0.002
11/07/2022,05:45:15,0.068,0.0,0.039,0.001
11/07/2022,05:46:23,0.071,0.0,0.04,0.001
11/07/2022,05:47:16,0.071,0.0,0.041,0.001
11/07/2022,05:48:15,0.073,0.0,0.042,0.001
11/07/2022,05:49:16,0.075,0.0,0.043,0.001
11/07/2022,05:50:15,0.077,0.0,0.045,0.002
11/07/2022,05:51:15,0.078,0.0,0.046,0.001
11/07/2022,05:52:24,0.080,0.0,0.047,0.001
11/07/2022,05:53:15,0.081,0.0,0.049,0.002
11/07/2022,05:54:16,0.084,0.0,0.05,0.001
11/07/2022,05:55:16,0.086,0.0,0.051,0.001
11/07/2022,05:56:16,0.088,0.0,0.053,0.002
11/07/2022,05:57:16,0.089,0.0,0.054,0.001
11/07/2022,05:58:15,0.091,0.0,0.056,0.002
11/07/2022,05:59:16,0.093,0.0,0.057,0.001
11/07/2022,06:00:15,0.095,0.0,0.059,0.002
11/07/2022,06:01:16,0.097,0.0,0.06,0.001
11/07/2022,06:02:15,0.099,0.0,0.062,0.002
11/07/2022,06:03:16,0.102,0.0,0.064,0.002
11/07/2022,06:04:15,0.103,0.0,0.065,0.001
11/07/2022,06:05:24,0.106,0.0,0.067,0.002
11/07/2022,06:07:16,0.111,0.0,0.071,0.004
11/07/2022,06:08:16,0.114,0.0,0.073,0.002
11/07/2022,06:09:17,0.115,0.0,0.075,0.002
11/07/2022,06:10:15,0.117,0.0,0.077,0.002
11/07/2022,06:11:16,0.120,0.0,0.079,0.002
11/07/2022,06:12:16,0.123,0.0,0.081,0.002
11/07/2022,06:13:16,0.125,0.0,0.083,0.002
11/07/2022,06:14:16,0.128,0.0,0.085,0.002
11/07/2022,06:15:16,0.130,0.0,0.087,0.002
11/07/2022,06:16:15,0.134,0.0,0.089,0.002
11/07/2022,06:17:32,0.137,0.0,0.092,0.003
11/07/2022,06:19:16,0.142,0.0,0.096,0.004
11/07/2022,06:20:15,0.144,0.0,0.098,0.002
11/07/2022,06:21:16,0.147,0.0,0.101,0.003
11/07/2022,06:22:16,0.149,0.0,0.103,0.002
11/07/2022,06:23:24,0.153,0.0,0.106,0.003
11/07/2022,06:24:16,0.156,0.0,0.108,0.002
11/07/2022,06:25:15,0.159,0.0,0.111,0.003
11/07/2022,06:26:16,0.162,0.0,0.114,0.003
11/07/2022,06:27:16,0.165,0.0,0.116,0.002
11/07/2022,06:28:15,0.168,0.0,0.119,0.003
11/07/2022,06:29:16,0.171,0.0,0.122,0.003
11/07/2022,06:30:15,0.175,0.0,0.125,0.003
11/07/2022,06:31:16,0.178,0.0,0.128,0.003
11/07/2022,06:32:15,0.182,0.0,0.131,0.003
11/07/2022,06:33:16,0.184,0.0,0.134,0.003
11/07/2022,06:34:16,0.187,0.0,0.137,0.003
11/07/2022,06:35:24,0.192,0.0,0.14,0.003
11/07/2022,06:36:16,0.194,0.0,0.143,0.003
11/07/2022,06:37:16,0.199,0.0,0.147,0.004
11/07/2022,06:38:24,0.202,0.0,0.15,0.003
11/07/2022,06:39:22,0.206,0.0,0.154,0.004
11/07/2022,06:40:16,0.209,0.0,0.157,0.003
11/07/2022,06:41:24,0.213,0.0,0.161,0.004
11/07/2022,06:42:16,0.217,0.0,0.164,0.003
11/07/2022,06:43:16,0.220,1.0,0.167,0.003
11/07/2022,06:44:15,0.226,1.0,0.171,0.004
11/07/2022,06:45:15,0.228,1.0,0.175,0.004
11/07/2022,06:46:16,0.232,1.0,0.179,0.004
11/07/2022,06:47:15,0.236,1.0,0.183,0.004
11/07/2022,06:48:24,0.241,1.0,0.187,0.004
11/07/2022,06:49:16,0.245,1.0,0.191,0.004
11/07/2022,06:50:15,0.249,1.0,0.195,0.004
11/07/2022,06:51:15,0.253,1.0,0.199,0.004
11/07/2022,06:52:16,0.258,1.0,0.203,0.004
11/07/2022,06:53:16,0.262,1.0,0.208,0.005
11/07/2022,06:54:16,0.265,1.0,0.212,0.004
11/07/2022,06:55:16,0.270,1.0,0.216,0.004
11/07/2022,06:56:24,0.275,1.0,0.222,0.006
11/07/2022,06:57:15,0.278,1.0,0.226,0.004
11/07/2022,06:58:15,0.282,1.0,0.23,0.004
11/07/2022,06:59:16,0.288,1.0,0.235,0.005
11/07/2022,07:00:16,0.293,1.0,0.24,0.005
11/07/2022,07:01:16,0.297,1.0,0.245,0.005
11/07/2022,07:02:15,0.302,1.0,0.25,0.005
11/07/2022,07:03:16,0.308,1.0,0.255,0.005
11/07/2022,07:04:15,0.313,1.0,0.26,0.005
11/07/2022,07:05:15,0.316,1.0,0.265,0.005
11/07/2022,07:06:07,0.320,1.0,0.27,0.005
11/07/2022,07:07:17,0.327,1.0,0.276,0.006
11/07/2022,07:08:17,0.332,1.0,0.282,0.006
11/07/2022,07:09:17,0.337,1.0,0.287,0.005
11/07/2022,07:10:16,0.342,1.0,0.293,0.006
11/07/2022,07:11:16,0.347,1.0,0.298,0.005
11/07/2022,07:12:24,0.352,1.0,0.305,0.007
11/07/2022,07:13:16,0.358,1.0,0.31,0.005
11/07/2022,07:14:16,0.362,1.0,0.316,0.006
11/07/2022,07:15:16,0.367,1.0,0.322,0.006
11/07/2022,07:16:16,0.373,1.0,0.328,0.006
11/07/2022,07:17:15,0.378,1.0,0.335,0.007
11/07/2022,07:18:16,0.383,1.0,0.341,0.006
11/07/2022,07:19:16,0.388,1.0,0.347,0.006
11/07/2022,07:20:16,0.395,1.0,0.354,0.007
11/07/2022,07:21:15,0.400,1.0,0.361,0.007
11/07/2022,07:22:16,0.406,1.0,0.367,0.006
11/07/2022,07:23:16,0.412,1.0,0.374,0.007
11/07/2022,07:24:23,0.419,1.0,0.382,0.008
11/07/2022,07:26:16,0.429,1.0,0.395,0.013
11/07/2022,07:27:15,0.437,1.0,0.402,0.007
11/07/2022,07:28:16,0.441,1.0,0.41,0.008
11/07/2022,07:29:16,0.449,1.0,0.417,0.007
11/07/2022,07:30:15,0.454,1.0,0.425,0.008
11/07/2022,07:31:15,0.460,1.0,0.432,0.007
11/07/2022,07:32:16,0.466,1.0,0.44,0.008
11/07/2022,07:33:24,0.474,1.0,0.449,0.009
11/07/2022,07:34:15,0.481,1.0,0.456,0.007
11/07/2022,07:35:15,0.487,1.0,0.464,0.008
11/07/2022,07:36:16,0.491,1.0,0.472,0.008
11/07/2022,07:37:16,0.500,1.0,0.48,0.008
11/07/2022,07:38:15,0.506,1.0,0.489,0.009
11/07/2022,07:39:16,0.514,1.0,0.497,0.008
11/07/2022,07:40:16,0.520,1.0,0.506,0.009
11/07/2022,07:41:16,0.526,1.0,0.514,0.008
11/07/2022,07:42:16,0.534,1.0,0.523,0.009
11/07/2022,07:43:16,0.541,1.0,0.532,0.009
11/07/2022,07:44:15,0.549,1.0,0.541,0.009
11/07/2022,07:45:16,0.555,1.0,0.551,0.01
11/07/2022,07:46:15,0.562,1.0,0.56,0.009
11/07/2022,07:47:16,0.570,1.0,0.569,0.009
11/07/2022,07:48:24,0.578,1.0,0.58,0.011
11/07/2022,07:49:15,0.584,1.0,0.588,0.008
11/07/2022,07:50:16,0.590,1.0,0.598,0.01
11/07/2022,07:51:16,0.599,1.0,0.608,0.01
11/07/2022,07:52:15,0.606,1.0,0.618,0.01
11/07/2022,07:53:15,0.615,1.0,0.628,0.01
11/07/2022,07:54:24,0.623,1.0,0.64,0.012
11/07/2022,07:55:15,0.631,1.0,0.649,0.009
11/07/2022,07:56:16,0.638,1.0,0.66,0.011
11/07/2022,07:57:25,0.647,1.0,0.672,0.012
11/07/2022,07:58:16,0.654,2.0,0.681,0.009
11/07/2022,07:59:16,0.662,2.0,0.692,0.011
11/07/2022,08:00:16,0.668,2.0,0.703,0.011
11/07/2022,08:01:16,0.676,2.0,0.714,0.011
11/07/2022,08:02:16,0.684,2.0,0.726,0.012
11/07/2022,08:03:16,0.692,2.0,0.737,0.011
11/07/2022,08:04:16,0.701,2.0,0.749,0.012
11/07/2022,08:05:16,0.711,2.0,0.761,0.012
11/07/2022,08:06:16,0.717,2.0,0.773,0.012
11/07/2022,08:07:16,0.725,2.0,0.785,0.012
11/07/2022,08:08:16,0.733,2.0,0.797,0.012
11/07/2022,08:09:16,0.741,2.0,0.809,0.012
11/07/2022,08:10:17,0.749,2.0,0.822,0.013
11/07/2022,08:11:16,0.757,2.0,0.834,0.012
11/07/2022,08:12:16,0.767,2.0,0.847,0.013
11/07/2022,08:13:15,0.772,2.0,0.86,0.013
11/07/2022,08:14:16,0.783,2.0,0.872,0.012
11/07/2022,08:15:16,0.791,2.0,0.886,0.014
11/07/2022,08:16:15,0.800,2.0,0.899,0.013
11/07/2022,08:17:16,0.810,2.0,0.912,0.013
11/07/2022,08:18:15,0.817,2.0,0.926,0.014
11/07/2022,08:19:16,0.825,2.0,0.94,0.014
11/07/2022,08:20:16,0.836,2.0,0.953,0.013
11/07/2022,08:21:15,0.845,2.0,0.967,0.014
11/07/2022,08:22:15,0.852,2.0,0.981,0.014
11/07/2022,08:23:16,0.862,2.0,0.996,0.015
11/07/2022,08:24:24,0.872,2.0,1.012,0.016
11/07/2022,08:25:16,0.879,2.0,1.025,0.013
11/07/2022,08:26:16,0.890,2.0,1.04,0.015
11/07/2022,08:27:22,0.898,2.0,1.056,0.016
11/07/2022,08:29:33,0.919,2.0,1.089,0.033
11/07/2022,08:31:25,0.935,2.0,1.118,0.029
11/07/2022,08:32:16,0.943,2.0,1.131,0.013
11/07/2022,08:33:16,0.951,2.0,1.147,0.016
11/07/2022,08:34:15,0.961,2.0,1.163,0.016
11/07/2022,08:35:16,0.973,2.0,1.179,0.016
11/07/2022,08:36:16,0.980,2.0,1.195,0.016
11/07/2022,08:37:18,0.988,2.0,1.212,0.017
11/07/2022,08:38:15,0.999,2.0,1.228,0.016
11/07/2022,08:39:24,1.010,2.0,1.247,0.019
11/07/2022,08:40:16,1.019,2.0,1.262,0.015
11/07/2022,08:41:16,1.027,2.0,1.279,0.017
11/07/2022,08:43:25,1.046,2.0,1.316,0.037
11/07/2022,08:45:24,1.063,2.0,1.351,0.035
11/07/2022,08:46:16,1.073,2.0,1.366,0.015
11/07/2022,08:47:16,1.082,2.0,1.384,0.018
11/07/2022,08:48:15,1.090,3.0,1.403,0.019
11/07/2022,08:49:16,1.098,3.0,1.421,0.018
11/07/2022,08:50:16,1.107,3.0,1.439,0.018
11/07/2022,08:51:16,1.116,3.0,1.458,0.019
11/07/2022,08:52:16,1.122,3.0,1.476,0.018
11/07/2022,08:53:16,1.136,3.0,1.495,0.019
11/07/2022,08:54:16,1.146,3.0,1.514,0.019
11/07/2022,08:55:16,1.156,3.0,1.533,0.019
11/07/2022,08:56:16,1.163,3.0,1.553,0.02
11/07/2022,08:57:24,1.172,3.0,1.575,0.022
11/07/2022,08:58:16,1.177,3.0,1.592,0.017
11/07/2022,08:59:16,1.185,3.0,1.611,0.019
11/07/2022,09:00:24,1.198,3.0,1.634,0.023
11/07/2022,09:01:16,1.209,3.0,1.651,0.017
11/07/2022,09:02:16,1.220,3.0,1.672,0.021
11/07/2022,09:03:16,1.228,3.0,1.692,0.02
11/07/2022,09:04:15,1.236,3.0,1.712,0.02
11/07/2022,09:05:16,1.248,3.0,1.733,0.021
11/07/2022,09:06:15,1.254,3.0,1.754,0.021
11/07/2022,09:07:16,1.261,3.0,1.775,0.021
11/07/2022,09:08:16,1.271,3.0,1.796,0.021
11/07/2022,09:09:16,1.282,3.0,1.817,0.021
11/07/2022,09:10:16,1.293,3.0,1.839,0.022
11/07/2022,09:11:16,1.303,3.0,1.86,0.021
11/07/2022,09:12:16,1.311,3.0,1.882,0.022
11/07/2022,09:13:16,1.320,3.0,1.904,0.022
11/07/2022,09:14:16,1.329,3.0,1.926,0.022
11/07/2022,09:15:26,1.341,3.0,1.952,0.026
11/07/2022,09:17:16,1.358,3.0,1.993,0.041
11/07/2022,09:18:16,1.367,3.0,2.016,0.023
11/07/2022,09:19:16,1.364,3.0,2.039,0.023
11/07/2022,09:20:16,1.380,3.0,2.062,0.023
11/07/2022,09:21:24,1.388,3.0,2.088,0.026
11/07/2022,09:22:15,1.399,3.0,2.108,0.02
11/07/2022,09:23:16,1.408,3.0,2.131,0.023
11/07/2022,09:24:16,1.419,3.0,2.155,0.024
11/07/2022,09:25:16,1.424,3.0,2.179,0.024
11/07/2022,09:26:15,1.434,3.0,2.202,0.023
11/07/2022,09:27:16,1.438,3.0,2.226,0.024
11/07/2022,09:28:16,1.445,3.0,2.25,0.024
11/07/2022,09:29:16,1.458,3.0,2.275,0.025
11/07/2022,09:30:16,1.466,3.0,2.299,0.024
11/07/2022,09:31:16,1.477,3.0,2.324,0.025
11/07/2022,09:32:15,1.488,3.0,2.348,0.024
11/07/2022,09:33:15,1.496,3.0,2.373,0.025
11/07/2022,09:34:16,1.506,3.0,2.398,0.025
11/07/2022,09:35:16,1.514,3.0,2.423,0.025
11/07/2022,09:36:16,1.523,4.0,2.449,0.026
11/07/2022,09:37:16,1.531,4.0,2.474,0.025
11/07/2022,09:38:16,1.540,4.0,2.5,0.026
11/07/2022,09:39:16,1.548,4.0,2.525,0.025
11/07/2022,09:40:16,1.555,4.0,2.551,0.026
11/07/2022,09:41:24,1.569,4.0,2.581,0.03
11/07/2022,09:42:16,1.579,4.0,2.604,0.023
11/07/2022,09:43:18,1.590,4.0,2.631,0.027
11/07/2022,09:44:25,1.601,4.0,2.66,0.029
11/07/2022,09:45:16,1.608,4.0,2.683,0.023
11/07/2022,09:46:16,1.617,4.0,2.71,0.027
11/07/2022,09:47:16,1.628,4.0,2.737,0.027
11/07/2022,09:48:16,1.634,4.0,2.764,0.027
11/07/2022,09:49:17,1.641,4.0,2.792,0.028
11/07/2022,09:50:16,1.646,4.0,2.819,0.027
11/07/2022,09:51:16,1.655,4.0,2.847,0.028
11/07/2022,09:52:16,1.664,4.0,2.874,0.027
11/07/2022,09:53:17,1.672,4.0,2.903,0.029
11/07/2022,09:54:16,1.683,4.0,2.93,0.027
11/07/2022,09:55:16,1.696,4.0,2.958,0.028
11/07/2022,09:56:16,1.704,4.0,2.986,0.028
11/07/2022,09:57:16,1.712,4.0,3.015,0.029
11/07/2022,09:58:16,1.722,4.0,3.043,0.028
11/07/2022,09:59:16,1.728,4.0,3.072,0.029
11/07/2022,10:00:16,1.740,4.0,3.101,0.029
11/07/2022,10:01:16,1.748,4.0,3.13,0.029
11/07/2022,10:02:16,1.757,4.0,3.159,0.029
11/07/2022,10:03:15,1.767,4.0,3.189,0.03
11/07/2022,10:04:16,1.776,4.0,3.218,0.029
11/07/2022,10:05:16,1.786,4.0,3.248,0.03
11/07/2022,10:06:16,1.795,4.0,3.278,0.03
11/07/2022,10:07:25,1.807,4.0,3.312,0.034
11/07/2022,10:08:16,1.811,4.0,3.338,0.026
11/07/2022,10:09:16,1.818,4.0,3.368,0.03
11/07/2022,10:10:25,1.827,4.0,3.403,0.035
11/07/2022,10:11:16,1.824,4.0,3.429,0.026
11/07/2022,10:12:16,1.832,4.0,3.459,0.03
11/07/2022,10:13:16,1.842,4.0,3.49,0.031
11/07/2022,10:14:15,1.851,4.0,3.521,0.031
11/07/2022,10:15:16,1.861,4.0,3.552,0.031
11/07/2022,10:16:16,1.867,4.0,3.583,0.031
11/07/2022,10:17:16,1.872,4.0,3.614,0.031
11/07/2022,10:18:16,1.876,4.0,3.645,0.031
11/07/2022,10:19:16,1.887,4.0,3.677,0.032
11/07/2022,10:20:16,1.898,4.0,3.708,0.031
11/07/2022,10:21:16,1.917,4.0,3.74,0.032
11/07/2022,10:22:18,1.927,4.0,3.773,0.033
11/07/2022,10:23:15,1.930,4.0,3.804,0.031
11/07/2022,10:24:16,1.933,4.0,3.836,0.032
11/07/2022,10:25:15,1.941,4.0,3.869,0.033
11/07/2022,10:26:16,1.949,4.0,3.901,0.032
11/07/2022,10:27:16,1.960,5.0,3.934,0.033
11/07/2022,10:28:16,1.961,5.0,3.966,0.032
11/07/2022,10:29:16,1.987,5.0,3.999,0.033
11/07/2022,10:30:16,1.997,5.0,4.032,0.033
11/07/2022,10:31:16,2.007,5.0,4.066,0.034
11/07/2022,10:32:16,2.020,5.0,4.099,0.033
11/07/2022,10:33:16,2.029,5.0,4.133,0.034
11/07/2022,10:34:16,2.034,5.0,4.167,0.034
11/07/2022,10:35:16,2.031,5.0,4.201,0.034
11/07/2022,10:36:16,2.036,5.0,4.235,0.034
11/07/2022,10:37:16,2.043,5.0,4.269,0.034
11/07/2022,10:38:17,2.052,5.0,4.303,0.034
11/07/2022,10:39:16,2.045,5.0,4.337,0.034
11/07/2022,10:40:16,2.018,5.0,4.371,0.034
11/07/2022,10:41:24,2.047,5.0,4.409,0.038
11/07/2022,10:42:16,2.050,5.0,4.439,0.03
11/07/2022,10:43:16,2.039,5.0,4.473,0.034
11/07/2022,10:44:16,2.054,5.0,4.507,0.034
11/07/2022,10:45:24,2.044,5.0,4.545,0.038
11/07/2022,10:46:16,2.057,5.0,4.575,0.03